Previsão horária em Bragança

Hoje, 30 Julho, Sexta-feira

Tempo Temperatura Precipitação Vento Pressão Humidade
00:00 +19°C° 0 mm 2 m/s 712 mmHg 44%
01:00 +18°C° 0 mm 2 m/s 712 mmHg 48%
02:00 +18°C° 0 mm 1 m/s 712 mmHg 51%
03:00 +16°C° 0 mm 1 m/s 712 mmHg 55%
04:00 +16°C° 0 mm 1 m/s 712 mmHg 56%
05:00 +16°C° 0 mm 1 m/s 712 mmHg 57%
06:00 +15°C° 0 mm 1 m/s 712 mmHg 58%
07:00 +19°C° 0 mm 1 m/s 713 mmHg 51%
08:00 +21°C° 0 mm 2 m/s 713 mmHg 44%
09:00 +24°C° 0 mm 2 m/s 713 mmHg 37%
10:00 +26°C° 0 mm 3 m/s 713 mmHg 33%
11:00 +28°C° 0 mm 4 m/s 713 mmHg 29%
12:00 +30°C° 0 mm 4 m/s 713 mmHg 25%
13:00 +32°C° 0 mm 5 m/s 713 mmHg 24%
14:00 +32°C° 0 mm 5 m/s 712 mmHg 22%
15:00 +33°C° 0 mm 6 m/s 712 mmHg 21%
16:00 +32°C° 0 mm 6 m/s 712 mmHg 24%
17:00 +30°C° 0 mm 6 m/s 712 mmHg 27%
18:00 +29°C° 0 mm 6 m/s 712 mmHg 30%
19:00 +26°C° 0 mm 5 m/s 712 mmHg 40%
20:00 +23°C° 0 mm 5 m/s 712 mmHg 51%
21:00 +20°C° 0 mm 4 m/s 712 mmHg 61%
22:00 +19°C° 0 mm 3 m/s 712 mmHg 65%
23:00 +18°C° 0 mm 3 m/s 712 mmHg 70%

Amanhã, 31 Julho, Sábado

Tempo Temperatura Precipitação Vento Pressão Humidade
00:00 +17°C° 0 mm 2 m/s 712 mmHg 74%
01:00 +17°C° 0 mm 2 m/s 712 mmHg 75%
02:00 +16°C° 0 mm 2 m/s 712 mmHg 76%
03:00 +16°C° 0 mm 2 m/s 712 mmHg 77%
04:00 +16°C° 0.1 mm 1 m/s 712 mmHg 77%
05:00 +16°C° 0.1 mm 1 m/s 712 mmHg 77%
06:00 +15°C° 0.1 mm 1 m/s 712 mmHg 78%
07:00 +16°C° 0 mm 2 m/s 713 mmHg 72%
08:00 +17°C° 0 mm 2 m/s 713 mmHg 67%
09:00 +18°C° 0 mm 2 m/s 713 mmHg 62%
10:00 +20°C° 0 mm 3 m/s 713 mmHg 51%
11:00 +22°C° 0 mm 3 m/s 713 mmHg 41%
12:00 +25°C° 0 mm 4 m/s 713 mmHg 30%
13:00 +26°C° 0 mm 4 m/s 713 mmHg 27%
14:00 +27°C° 0 mm 5 m/s 713 mmHg 24%
15:00 +28°C° 0 mm 6 m/s 712 mmHg 21%
16:00 +27°C° 0 mm 6 m/s 712 mmHg 23%
17:00 +26°C° 0 mm 6 m/s 712 mmHg 24%
18:00 +24°C° 0 mm 7 m/s 712 mmHg 26%
19:00 +22°C° 0 mm 6 m/s 712 mmHg 33%
20:00 +20°C° 0 mm 6 m/s 713 mmHg 40%
21:00 +17°C° 0 mm 5 m/s 713 mmHg 47%
22:00 +17°C° 0 mm 4 m/s 713 mmHg 53%
23:00 +14°C° 0 mm 3 m/s 713 mmHg 60%

Depois de amanhã, 1 Agosto, Domingo

Tempo Temperatura Precipitação Vento Pressão Humidade
00:00 +14°C° 0 mm 2 m/s 713 mmHg 66%
01:00 +13°C° 0 mm 2 m/s 713 mmHg 69%
02:00 +13°C° 0 mm 1 m/s 713 mmHg 72%
03:00 +12°C° 0 mm 1 m/s 713 mmHg 74%
04:00 +12°C° 0 mm 1 m/s 713 mmHg 75%
05:00 +12°C° 0 mm 1 m/s 713 mmHg 75%
06:00 +12°C° 0 mm 1 m/s 714 mmHg 75%
07:00 +14°C° 0 mm 1 m/s 714 mmHg 66%
08:00 +18°C° 0 mm 1 m/s 714 mmHg 58%
09:00 +20°C° 0 mm 1 m/s 714 mmHg 49%
10:00 +22°C° 0 mm 1 m/s 714 mmHg 42%
11:00 +24°C° 0 mm 2 m/s 714 mmHg 35%
12:00 +25°C° 0 mm 2 m/s 714 mmHg 28%
13:00 +26°C° 0 mm 3 m/s 713 mmHg 25%
14:00 +27°C° 0 mm 3 m/s 713 mmHg 22%
15:00 +28°C° 0 mm 4 m/s 713 mmHg 18%
16:00 +28°C° 0 mm 4 m/s 713 mmHg 19%
17:00 +28°C° 0 mm 4 m/s 712 mmHg 20%
18:00 +27°C° 0 mm 5 m/s 712 mmHg 21%
19:00 +25°C° 0 mm 4 m/s 712 mmHg 29%
20:00 +22°C° 0 mm 3 m/s 712 mmHg 36%
21:00 +19°C° 0 mm 3 m/s 712 mmHg 44%
22:00 +18°C° 0 mm 3 m/s 713 mmHg 50%
23:00 +17°C° 0 mm 2 m/s 713 mmHg 57%

2 Agosto, Segunda-feira

Tempo Temperatura Precipitação Vento Pressão Humidade
00:00 +16°C° 0 mm 2 m/s 713 mmHg 63%
01:00 +15°C° 0 mm 2 m/s 713 mmHg 66%
02:00 +15°C° 0 mm 2 m/s 713 mmHg 69%
03:00 +14°C° 0 mm 2 m/s 713 mmHg 72%
04:00 +14°C° 0 mm 2 m/s 713 mmHg 73%
05:00 +14°C° 0 mm 2 m/s 713 mmHg 74%
06:00 +14°C° 0 mm 2 m/s 713 mmHg 75%
07:00 +16°C° 0 mm 2 m/s 713 mmHg 65%
08:00 +19°C° 0 mm 2 m/s 713 mmHg 55%
09:00 +21°C° 0 mm 2 m/s 713 mmHg 45%
10:00 +25°C° 0 mm 2 m/s 713 mmHg 38%
11:00 +27°C° 0 mm 1 m/s 713 mmHg 31%
12:00 +30°C° 0 mm 1 m/s 713 mmHg 24%
13:00 +30°C° 0 mm 1 m/s 713 mmHg 21%
14:00 +31°C° 0 mm 1 m/s 713 mmHg 19%
15:00 +32°C° 0 mm 2 m/s 713 mmHg 17%
16:00 +31°C° 0 mm 2 m/s 712 mmHg 17%
17:00 +31°C° 0 mm 2 m/s 712 mmHg 17%
18:00 +31°C° 0 mm 2 m/s 712 mmHg 17%
19:00 +28°C° 0 mm 2 m/s 712 mmHg 23%
20:00 +26°C° 0 mm 2 m/s 712 mmHg 29%
21:00 +23°C° 0 mm 2 m/s 712 mmHg 35%
22:00 +21°C° 0 mm 2 m/s 713 mmHg 41%
23:00 +20°C° 0 mm 2 m/s 713 mmHg 48%

3 Agosto, Terça-feira

Tempo Temperatura Precipitação Vento Pressão Humidade
00:00 +18°C° 0 mm 2 m/s 714 mmHg 54%
01:00 +18°C° 0 mm 2 m/s 714 mmHg 60%
02:00 +17°C° 0 mm 2 m/s 714 mmHg 66%
03:00 +16°C° 0 mm 2 m/s 714 mmHg 72%
04:00 +16°C° 0 mm 1 m/s 714 mmHg 74%
05:00 +16°C° 0 mm 1 m/s 714 mmHg 75%
06:00 +15°C° 0 mm 1 m/s 714 mmHg 77%
07:00 +19°C° 0 mm 1 m/s 714 mmHg 66%
08:00 +22°C° 0 mm 1 m/s 715 mmHg 55%
09:00 +23°C° 0 mm 0 m/s 715 mmHg 44%
10:00 +27°C° 0 mm 1 m/s 715 mmHg 37%
11:00 +29°C° 0 mm 2 m/s 715 mmHg 30%
12:00 +31°C° 0 mm 3 m/s 715 mmHg 23%
13:00 +33°C° 0 mm 4 m/s 715 mmHg 21%
14:00 +34°C° 0 mm 4 m/s 714 mmHg 19%
15:00 +35°C° 0 mm 4 m/s 714 mmHg 16%
16:00 +34°C° 0 mm 5 m/s 714 mmHg 17%
17:00 +33°C° 0 mm 5 m/s 714 mmHg 17%
18:00 +33°C° 0 mm 6 m/s 714 mmHg 18%
19:00 +29°C° 0 mm 5 m/s 714 mmHg 22%
20:00 +27°C° 0 mm 4 m/s 714 mmHg 27%
21:00 +24°C° 0 mm 3 m/s 715 mmHg 32%
22:00 +22°C° 0 mm 3 m/s 715 mmHg 36%
23:00 +21°C° 0 mm 2 m/s 715 mmHg 41%

4 Agosto, Quarta-feira

Tempo Temperatura Precipitação Vento Pressão Humidade
00:00 +21°C° 0 mm 1 m/s 715 mmHg 45%
01:00 +20°C° 0 mm 1 m/s 715 mmHg 49%
02:00 +19°C° 0 mm 1 m/s 715 mmHg 54%
03:00 +18°C° 0 mm 1 m/s 715 mmHg 59%
04:00 +18°C° 0 mm 1 m/s 715 mmHg 61%
05:00 +18°C° 0 mm 1 m/s 715 mmHg 63%
06:00 +18°C° 0 mm 1 m/s 715 mmHg 65%
07:00 +20°C° 0 mm 1 m/s 716 mmHg 58%
08:00 +22°C° 0 mm 1 m/s 716 mmHg 50%
09:00 +25°C° 0 mm 1 m/s 716 mmHg 43%
10:00 +27°C° 0 mm 1 m/s 716 mmHg 38%
11:00 +29°C° 0 mm 2 m/s 716 mmHg 33%
12:00 +30°C° 0 mm 2 m/s 716 mmHg 28%
13:00 +33°C° 0 mm 3 m/s 715 mmHg 25%
14:00 +34°C° 0 mm 3 m/s 715 mmHg 21%
15:00 +35°C° 0 mm 4 m/s 715 mmHg 17%
16:00 +34°C° 0 mm 4 m/s 714 mmHg 18%
17:00 +34°C° 0 mm 5 m/s 714 mmHg 18%
18:00 +33°C° 0 mm 5 m/s 714 mmHg 18%
19:00 +30°C° 0 mm 4 m/s 714 mmHg 25%
20:00 +27°C° 0 mm 4 m/s 714 mmHg 31%
21:00 +24°C° 0 mm 3 m/s 714 mmHg 38%
22:00 +22°C° 0 mm 3 m/s 714 mmHg 44%
23:00 +21°C° 0 mm 2 m/s 714 mmHg 51%
Mostrar mais

Necessitamos do seu Consentimento

A Meteoprog e os seus Fornecedores de Serviços podem armazenar e aceder a dados pessoais como cookies, identificadores do dispositivo ou outras tecnologias semelhantes existentes no seu dispositivo e processar estes dados para personalizar conteúdos e anúncios, assim como funcionalidades nas redes sociais e análise de tráfego.

  • Armazenar e/ou aceder a informações no seu dispositivo

    Os cookies, identificadores do dispositivo ou outras informações podem ser armazenados ou acedidos no seu dispositivo, para os fins acima indicados.

  • Anúncios e conteúdos personalizados, medição de anúncios e conteúdos, dados sobre o público-alvo e desenvolvimento de produtos

    Os anúncios e os conteúdos podem ser personalizados com base num perfil. Podem ser adicionados dados adicionais para uma maior personalização dos anúncios e dos conteúdos. A eficácia dos anúncios e dos conteúdos pode ser medida. Podem ser obtidas informações sobre o público que visualizou os anúncios e os conteúdos. Estes dados podem ser usados para desenvolver ou melhorar sistemas, softwares ou a experiência do utilizador.

Ao clicar em "Eu concordo”, permitirá o uso de cookies, identificadores do dispositivo e web beacons mencionados ou outras tecnologias semelhantes. As configurações do navegador do seu dispositivo podem ser alteradas.

Para certos fins, podem ser invocados interesses legítimos ao invés de consentimento. Pode ler mais informação sobre este assunto na nossa Política de Privacidade e Cookies.